Regional Weather Roundup
Issued by NWS Charleston, SC

Current Version | Previous Version | Graphics & Text | Print | Product List | Glossary On
Versions: 1 2 3 4 5 6 7 8 9 10 11 12 13 14 15 16 17 18 19 20 21 22 23 24 25 26 27 28 29 30 31 32 33 34 35 36 37 38 39 40 41 42 43 44 45 46 47 48 49 50
000 ASUS42 KCHS 280312 RWRCHS REGIONAL WEATHER ROUNDUP NATIONAL WEATHER SERVICE CHARLESTON SC 1100 PM EDT SAT MAY 27 2017 NOTE: "FAIR" INDICATES FEW OR NO CLOUDS BELOW 12,000 FEET WITH NO SIGNIFICANT WEATHER AND/OR OBSTRUCTIONS TO VISIBILITY. NOT ALL STATIONS ARE QUALITY CONTROLLED. USE DATA WITH CAUTION... ESPECIALLY DEWPOINT OBSERVATIONS. SCZ027-030-031-034>040-042>050-280400- ...SOUTHEAST SOUTH CAROLINA... CITY SKY/WX TMP DP RH WIND PRES REMARKS N CHARLESTON PTCLDY 73 68 84 S8 29.95R WATERFRONT PRK N/A 77 72 84 SW5 29.94 JOHNS ISLAND FAIR 77 72 83 S8 29.96S PINOPOLIS N/A 79 68 69 VRB2 29.87R MONCKS CORNER FAIR 70 64 83 CALM 29.95R SUMMERVILLE FAIR 72 64 78 CALM 29.96R BEAUFORT MCAS CLEAR 77 72 84 SW3 29.96R BEAUFORT ARPT FAIR 77 70 78 S6 29.96R HILTON HEAD IS CLEAR 77 70 78 S6 29.98R WALTERBORO PTCLDY 70 63 78 CALM 29.96S ALLENDALE FAIR 72 63 73 CALM 29.96R ...SOUTHERN MIDLANDS AND PEE DEE... CITY SKY/WX TMP DP RH WIND PRES REMARKS GEORGETOWN NOT AVBL KINGSTREE FAIR 72 64 78 CALM 29.93S ORANGEBURG CLEAR 72 60 66 CALM 29.96R BARNWELL FAIR 72 64 78 CALM 29.97R AIKEN FAIR 72 55 56 CALM 30.00R MANNING FAIR 70 66 88 CALM 29.94S COLUMBIA CLEAR 76 64 66 CALM 29.93R SUMTER CLEAR 73 65 78 S5 29.91S FLORENCE CLEAR 74 68 81 SW3 29.92S MYRTLE BEACH CLEAR 78 70 76 SW7 29.93 N MYRTLE BEACH CLEAR 76 72 87 SW14 29.92S $$ GAZ063-065-086>088-099>101-113>116-118-119-134>141-150-280400- ...SOUTHEAST GEORGIA... CITY SKY/WX TMP DP RH WIND PRES REMARKS SAVANNAH ARPT CLEAR 74 63 68 S5 29.98R HUNTER AAF CLEAR 74 72 93 CALM 29.95R FORT STEWART CLEAR 71 64 76 CALM 29.96R STATESBORO CLEAR 71 68 90 CALM 29.97S SYLVANIA CLEAR 73 66 80 CALM 29.98R CLAXTON FAIR 68 68 100 CALM 29.98R ...CSRA...CENTRAL AND FAR SOUTHEAST GEORGIA... CITY SKY/WX TMP DP RH WIND PRES REMARKS THOMSON CLEAR 74 64 70 NW5 30.01S HAZE AUGUSTA-BUSH CLEAR 73 62 68 SW5 29.96R AUGUSTA-DANIEL CLEAR 79 56 45 CALM 29.97R SWAINSBORO FAIR 72 64 78 CALM 29.99S VIDALIA CLEAR 77 64 65 CALM 29.99R EASTMAN FAIR 72 57 59 CALM 30.02S HAZLEHURST FAIR 74 66 76 CALM 29.99R ALMA CLEAR 69 63 81 CALM 29.99R WAYCROSS CLEAR 73 67 79 CALM 29.99R JESUP FAIR 72 59 64 CALM 29.98R BAXLEY FAIR 72 68 88 CALM 29.99R BRUNSWICK CLEAR 75 72 88 CALM 29.99R SAINT SIMONS CLEAR 79 72 79 S9 29.98R $$ SCZ027-028-034-036>038-045-046-048>050-GAZ119-141-280400- ...LAKE AND SUPPLEMENTAL COASTAL OBSERVATIONS... STATION/POSITION TIME TEMP WIND PRES WAVE SWELL AIR SEA DIR/SP/G HT/PER HT/PER/DIR (UTC) (F) (DEG/KT/KT) (MB) (FT/S) (FT/S/D) WINYAH BAY NOT AVBL LAKE MURRAY NOT AVBL ACE BASIN NERRS NOT AVBL FORT PULASKI 0248 78 230/ 4/ 6 1015.2R SAPELO ISLAND 0200 78 180/ 11 1014.0 $$ ANZ835-935-AMZ111-154-330-350-352-354-370-450-454-472-280400- ...C-MAN AND BUOY OBSERVATIONS... STATION/POSITION TIME TEMP WIND PRES WAVE SWELL AIR SEA DIR/SP/G HT/PER HT/PER/DIR (UTC) (F) (DEG/KT/KT) (MB) (FT/S) (FT/S/D) BUOY 41004 0250 77 75 220/ 10/ 12 1014.4R 3/ 5 2/130/ 8 BUOY 41008 0150 78 78 180/ 14/ 16 1014.0 2/ 7 2/100/ 7 FOLLY BEACH CMAN NOT AVBL CAPERS NEARSHORE 0208 82 77 240/ 12/ 17 1013.8R FRIPP NEARSHORE 0208 79 78 230/ 10/ 14 1014.0R STATION/POSITION TIME TEMP WIND PRES WAVE SWELL AIR SEA DIR/SP/G HT/PER HT/PER/DIR (UTC) (F) (DEG/KT/KT) (MB) (FT/S) (FT/S/D) 5E ST. MARYS GA 0230 79 N/A 3/ 4 FRYING PAN BUOY 0250 76 75 220/ 14/ 17 1013.6R 3/ 5 2/150/ 8 BUOY 41025 0250 77 78 230/ 19/ 21 1012.5R 3/ 4 2/140/ 9 CAPE LOOKOUT NC 0200 76 220/ 11/ 15 1012.5R BUOY 41002 0150 76 77 210/ 14/ 14 1015.3 3/ 8 2/150/ 8 BUOY 41010 0250 79 80 170/ 12/ 14 1016.8R 2/ 8 2/ 80/ 8 ST AUGUSTINE FL 0300 74 78 210/ 4/ 6 1016.9R $$

USA.gov is the U.S. government's official web portal to all federal, state and local government web resources and services.